AKUREYRI current weather conditions

sailwx.info

Wind from 160 at 9 knots

Air temperature -2.0° C
Visibility: greater than 5.4 NM
Dewpoint -6.0° C

Last reported at 2019-Nov-17 06:00 UTC.
Time now 2019-Nov-17 07:27 UTC

Location: N 65°41' W 018°04'.
View on Google Maps.

See reports from other nearby stations

  
Tides and Currents Weather Stations Pressure Air Temp Water Temp Dewpoint Dewpoint Depression Visibility Wind Speed Wind Dir Waves Ship Positions
date/time (UTC)wind fromknots sea level pressurealtimeterstation pressurevisibilityair tempwater tempwave heightnotes
2019-Nov-17 07:00 140 6 5.4-2.0
2019-Nov-17 06:00 160 9 5.4-2.0
2019-Nov-17 05:00 5.4-2.0
2019-Nov-17 04:00 160 11 5.4-1.0
2019-Nov-17 03:00 160 9 5.4-1.0
2019-Nov-17 02:00 140 8 5.4-0.0
2019-Nov-17 01:00 170 13 5.4-0.0
2019-Nov-17 00:00 180 6 5.4-0.0
2019-Nov-16 23:00 200 8 5.4 2.0
2019-Nov-16 22:00 200 8 5.4 2.0
2019-Nov-16 21:00 190 12 5.4 2.0
2019-Nov-16 20:00 190 13 5.4 2.0
2019-Nov-16 19:00 140 6 5.4 3.0
2019-Nov-16 18:00 150 7 5.4 1.0
2019-Nov-16 17:00 160 9 5.4-0.0
2019-Nov-16 16:00 140 13 5.4 2.0
2019-Nov-16 15:00 130 13 5.4 2.0
2019-Nov-16 14:00 160 13 5.4 1.0
2019-Nov-16 13:00 150 12 5.4 1.0
2019-Nov-16 12:00 180 7 5.4-0.0
2019-Nov-16 11:00 160 13 5.4-1.0
2019-Nov-16 10:00 120 13 5.4-1.0
2019-Nov-16 09:00 130 12 5.4-0.0
2019-Nov-16 08:00 160 12 5.4-0.0
2019-Nov-16 07:00 180 11 5.4-1.0
2019-Nov-16 06:00 170 13 5.4-1.0
2019-Nov-16 05:00 120 9 5.4 1.0
2019-Nov-16 04:00 190 17 5.4 3.0
2019-Nov-16 03:00 180 7 5.4 2.0
2019-Nov-16 02:00 170 9 5.4 2.0
2019-Nov-16 01:00 5.4 2.0
2019-Nov-16 00:00 160 6 5.4 3.0
2019-Nov-15 23:00 140 7 5.4 3.0
2019-Nov-15 22:00 5.4 3.0 Light rain.
2019-Nov-15 21:00 320 5 5.4 4.0
2019-Nov-15 20:00 140 5 5.4 4.0 Light drizzle.
2019-Nov-15 19:00 190 6 5.4 4.0 Light drizzle.
2019-Nov-15 18:00 160 9 5.4 5.0 Light rain.
2019-Nov-15 17:00 140 14 gusting 26 5.4 6.0 Light drizzle.
2019-Nov-15 16:00 130 17 5.4 6.0
2019-Nov-15 15:00 140 18 5.4 5.0 Light rain.
2019-Nov-15 14:00 140 13 5.4 5.0 Light drizzle.
2019-Nov-15 13:00 140 12 5.4 4.0 Light rain.
2019-Nov-15 12:00 170 14 5.4 4.0 Light rain.
2019-Nov-15 11:00 160 15 5.4 3.0 Light rain.
2019-Nov-15 10:00 170 25 5.4 4.0
2019-Nov-15 09:00 190 20 5.4 4.0
2019-Nov-15 08:00 190 13 5.4 4.0
2019-Nov-15 07:00 190 11 5.4 4.0